Location: *
(47.7167°N, 1.7333°W)
Time: 13:52:23
(UTC+00:00)

Cosmos 192 - Pass Details

Date: 09 April 2020
Orbit: 700 x 714 km, 74.0° (Epoch: 02 June)

Event Time Altitude Azimuth Distance (km) Brightness Sun altitude
Rises 20:33:52 0° 338° (NNW) 3,118 8.6 -17.0°
Reaches altitude 10° 20:36:12 10° 340° (NNW) 2,197 7.7 -17.3°
Maximum altitude 20:41:11 77° 67° (ENE) 736 4.3 -18.0°
Enters shadow 20:43:24 33° 148° (SSE) 1,186 5.0 -18.3°
